Total_Precipitation_Accumulation
1.93 2.23 1.83 1.11 0.92 0.85 0.72 0.66 0.58 0.57 0.56 0.64 0.66 0.71 0.75 0.73 0.71 0.76 0.86 0.94 0.97 0.99 1.10 1.39 1.82 2.12 2.55 3.02 3.21 3.28 3.23 3.40 3.67 3.58 3.34 3.06 2.75 2.53 2.35 2.28 2.17 1.94 1.79 1.70
1.88 1.61 0.98 0.75 0.84 0.92 0.91 0.83 0.66 0.61 0.57 0.69 0.69 0.72 0.69 0.68 0.68 0.70 0.78 0.85 0.88 0.88 1.02 1.30 1.60 1.92 2.16 2.75 3.10 3.16 3.29 3.43 3.61 3.50 3.36 3.25 3.12 2.89 2.66 2.53 2.29 2.11 1.92 1.76
1.40 0.99 0.79 0.99 1.09 1.07 1.01 0.86 0.67 0.70 0.77 0.74 0.72 0.79 0.65 0.61 0.59 0.60 0.72 0.81 0.81 0.82 0.97 1.17 1.36 1.65 1.82 2.21 2.66 2.87 2.97 3.24 3.42 3.57 3.82 3.79 3.61 3.22 2.75 2.47 2.34 2.20 2.17 2.03
1.17 0.81 0.95 1.24 1.24 1.07 1.02 0.67 0.67 0.72 0.93 0.98 0.79 1.01 0.72 0.60 0.58 0.58 0.69 0.78 0.79 0.80 0.91 1.09 1.24 1.35 1.55 1.80 2.21 2.59 2.81 3.01 3.13 3.24 3.47 3.58 3.42 3.03 2.63 2.38 2.38 2.43 2.36 2.33
1.18 0.84 1.03 1.31 1.10 0.97 0.91 0.63 0.74 0.84 1.00 1.04 0.74 0.90 0.79 0.60 0.65 0.65 0.71 0.78 0.80 0.86 0.97 1.08 1.15 1.16 1.28 1.53 1.93 2.29 2.57 2.82 2.89 2.91 3.03 3.24 3.33 3.19 2.99 2.72 2.56 2.53 2.48 2.37
0.89 0.86 1.10 1.18 0.97 0.97 0.97 1.01 1.15 1.28 1.64 1.67 0.73 0.71 0.75 0.73 0.82 0.73 0.70 0.79 0.85 0.96 1.05 1.07 1.11 1.11 1.16 1.32 1.60 1.94 2.24 2.57 2.77 2.74 2.87 2.97 2.99 3.08 3.01 2.73 2.63 2.54 2.59 2.51
1.14 1.11 1.08 1.17 1.44 1.39 1.48 2.01 2.58 2.58 2.38 1.45 0.48 0.54 0.80 0.74 0.76 0.77 0.78 0.82 0.84 0.89 0.97 0.97 0.97 1.01 1.11 1.23 1.38 1.62 1.78 2.07 2.41 2.54 2.62 2.72 2.78 2.80 2.87 2.77 2.66 2.58 2.46 2.39
1.28 1.34 1.04 1.14 1.59 1.69 1.52 1.81 2.01 1.78 1.22 0.71 0.45 0.64 0.79 0.69 0.69 0.71 0.73 0.78 0.86 0.94 0.99 0.99 0.97 1.02 1.13 1.19 1.28 1.42 1.55 1.70 2.00 2.26 2.29 2.35 2.52 2.59 2.55 2.57 2.50 2.44 2.34 2.26
1.07 1.07 0.82 0.89 1.10 1.29 1.46 1.39 1.13 1.41 1.02 0.78 0.67 0.62 0.59 0.50 0.54 0.60 0.61 0.65 0.81 0.92 0.94 0.98 1.01 1.08 1.12 1.16 1.22 1.31 1.41 1.45 1.61 1.92 2.07 2.13 2.19 2.21 2.14 2.12 2.12 2.13 2.13 2.12
1.05 1.11 0.87 0.90 1.18 1.30 1.27 1.14 1.23 1.69 1.46 1.06 0.66 0.55 0.73 0.65 0.64 0.64 0.65 0.68 0.78 0.87 0.93 0.99 1.04 1.02 1.00 1.04 1.13 1.24 1.27 1.26 1.33 1.50 1.69 1.88 1.94 1.91 1.93 1.90 1.81 1.78 1.76 1.78
0.88 1.16 1.14 1.09 1.31 1.21 1.06 1.24 1.34 1.35 1.14 1.16 0.85 0.76 0.76 0.70 0.70 0.72 0.77 0.77 0.82 0.86 0.96 1.05 1.08 1.03 0.98 1.01 1.10 1.19 1.17 1.16 1.19 1.29 1.37 1.50 1.64 1.68 1.71 1.70 1.57 1.54 1.49 1.45
0.73 1.04 1.15 0.93 0.75 0.71 0.84 0.96 1.13 1.48 1.15 0.90 0.90 0.81 0.60 0.59 0.64 0.69 0.79 0.80 0.81 0.83 0.89 0.96 1.00 0.98 1.00 1.05 1.10 1.17 1.15 1.14 1.11 1.17 1.21 1.25 1.37 1.50 1.54 1.58 1.49 1.38 1.37 1.30
0.96 1.17 1.25 1.09 0.95 0.83 0.86 0.77 0.89 1.17 1.33 1.01 0.98 0.84 0.57 0.52 0.56 0.64 0.75 0.79 0.78 0.80 0.81 0.83 0.83 0.89 0.95 1.01 1.05 1.13 1.13 1.06 1.03 1.05 1.06 1.13 1.22 1.32 1.37 1.36 1.39 1.32 1.32 1.24
1.16 1.12 1.06 1.10 0.98 0.88 0.81 0.67 0.78 1.35 1.61 0.99 0.77 0.73 0.61 0.62 0.63 0.66 0.71 0.75 0.75 0.75 0.70 0.70 0.73 0.78 0.83 0.91 0.96 0.98 1.03 1.03 1.03 1.01 0.97 1.01 1.06 1.19 1.25 1.21 1.23 1.24 1.27 1.27
0.87 0.96 0.69 0.59 0.46 0.51 0.59 0.62 0.72 1.03 0.98 0.97 0.69 0.61 0.69 0.71 0.73 0.73 0.68 0.67 0.63 0.62 0.62 0.64 0.65 0.66 0.72 0.76 0.81 0.84 0.88 0.92 0.97 0.97 0.94 0.95 0.95 1.03 1.10 1.06 1.08 1.10 1.15 1.24
0.56 0.75 0.62 0.55 0.39 0.42 0.52 0.53 0.56 0.68 0.72 0.75 0.59 0.65 0.65 0.65 0.59 0.57 0.55 0.54 0.53 0.55 0.59 0.58 0.57 0.57 0.57 0.59 0.64 0.70 0.76 0.82 0.90 0.90 0.91 0.90 0.89 0.94 1.02 1.01 1.00 1.01 1.08 1.18
0.49 0.61 0.77 0.62 0.40 0.52 0.69 0.65 0.66 0.71 0.74 0.75 0.85 0.79 0.59 0.55 0.54 0.55 0.52 0.47 0.46 0.45 0.48 0.49 0.49 0.51 0.50 0.50 0.52 0.58 0.63 0.69 0.77 0.84 0.87 0.89 0.93 0.96 1.00 1.01 1.01 1.06 1.11 1.19
0.46 0.58 0.90 0.73 0.51 0.69 0.68 0.50 0.55 0.62 0.66 0.66 0.71 0.66 0.58 0.58 0.57 0.52 0.49 0.46 0.42 0.40 0.43 0.46 0.46 0.46 0.45 0.44 0.44 0.48 0.53 0.59 0.66 0.74 0.82 0.84 0.89 0.91 0.93 0.99 1.01 1.07 1.11 1.17
0.32 0.64 1.03 0.86 0.62 0.47 0.39 0.37 0.57 0.65 0.70 0.64 0.63 0.59 0.56 0.49 0.43 0.44 0.43 0.44 0.45 0.43 0.43 0.45 0.44 0.44 0.42 0.39 0.40 0.44 0.51 0.55 0.58 0.68 0.81 0.86 0.92 0.94 0.96 1.02 1.03 1.05 1.10 1.13
0.29 0.54 1.02 0.89 0.74 0.53 0.45 0.31 0.34 0.50 0.73 0.51 0.51 0.54 0.54 0.48 0.56 0.58 0.50 0.46 0.44 0.40 0.39 0.41 0.39 0.38 0.41 0.43 0.45 0.49 0.55 0.58 0.61 0.67 0.77 0.84 0.93 1.03 1.07 1.08 1.06 1.02 1.05 1.11
0.45 0.66 0.84 0.72 0.69 0.46 0.38 0.25 0.22 0.63 0.87 0.52 0.51 0.54 0.52 0.58 0.68 0.63 0.54 0.49 0.45 0.44 0.42 0.40 0.39 0.41 0.48 0.53 0.54 0.56 0.61 0.68 0.70 0.71 0.76 0.80 0.84 0.92 0.97 0.98 0.99 1.00 0.98 0.97
0.43 0.50 0.49 0.49 0.66 0.56 0.35 0.29 0.55 0.75 0.51 0.44 0.43 0.46 0.49 0.53 0.51 0.51 0.52 0.49 0.45 0.47 0.44 0.40 0.40 0.43 0.44 0.50 0.57 0.58 0.62 0.66 0.66 0.67 0.74 0.82 0.82 0.84 0.87 0.89 0.92 0.95 0.92 0.89
0.40 0.51 0.55 0.55 0.65 0.60 0.48 0.52 0.55 0.47 0.41 0.38 0.40 0.42 0.41 0.44 0.45 0.46 0.48 0.45 0.43 0.44 0.44 0.40 0.39 0.40 0.38 0.41 0.48 0.57 0.61 0.63 0.65 0.67 0.72 0.78 0.79 0.81 0.84 0.84 0.86 0.86 0.84 0.80
0.32 0.25 0.34 0.41 0.42 0.39 0.37 0.35 0.36 0.37 0.38 0.36 0.35 0.34 0.33 0.37 0.39 0.41 0.41 0.41 0.40 0.38 0.39 0.39 0.37 0.37 0.38 0.39 0.40 0.47 0.53 0.57 0.62 0.65 0.67 0.70 0.75 0.76 0.75 0.76 0.80 0.83 0.84 0.80
0.32 0.25 0.28 0.36 0.34 0.30 0.30 0.30 0.31 0.29 0.25 0.23 0.22 0.23 0.27 0.32 0.35 0.38 0.41 0.42 0.42 0.41 0.40 0.40 0.40 0.38 0.40 0.38 0.39 0.40 0.42 0.47 0.54 0.60 0.62 0.62 0.64 0.68 0.70 0.71 0.76 0.81 0.82 0.87
0.36 0.38 0.43 0.46 0.35 0.38 0.36 0.27 0.22 0.20 0.19 0.18 0.17 0.17 0.20 0.25 0.28 0.28 0.31 0.36 0.41 0.42 0.39 0.38 0.38 0.37 0.38 0.38 0.41 0.41 0.41 0.45 0.49 0.53 0.55 0.57 0.59 0.61 0.65 0.67 0.68 0.75 0.78 0.84